Weather History for Wainwright, AK

Change the Weather History Date:

Sunday, May 11, 2014

  Actual Average (PABR) Record (PABR)
Temperature  
Mean Temperature 36 °F 19 °F  
Max Temperature 39 °F 23 °F 36 °F (1968)
Min Temperature 33 °F 14 °F -9 °F (1935)
Degree Days  
Heating Degree Days 29 47  
Month to date heating degree days 546  
Since 1 July heating degree days 17693  
Cooling Degree Days 0    
Month to date cooling degree days  
Year to date cooling degree days  
Moisture  
Dew Point 32 °F    
Average Humidity 86    
Maximum Humidity 96    
Minimum Humidity 79    
Precipitation  
Precipitation 0.05 in 0.00 in 0.07 in (1969)
Month to date precipitation 0.05  
Year to date precipitation 0.57  
Snow  
Snow 0.00 in 0.00 in 1.10 in (1969)
Month to date snowfall 1.0  
Since 1 July snowfall 35.3  
Snow Depth -    
Sea Level Pressure  
Sea Level Pressure 30.20 in    
Wind  
Wind Speed 9 mph (South)    
Max Wind Speed 20 mph    
Max Gust Speed 24 mph    
Visibility 10 miles    
Events      
T = Trace of Precipitation, MM = Missing Value Source: NWS Daily Summary

Daily Weather History Graph

Daily Weather History Graph

Search for Another Location

Airport:

Trip Planner

Search our weather history database for the weather conditions in past years. The results will help you decide how hot, cold, wet, or windy it might be!

Date:

Astronomy

May. 11, 2014 Rise Set
Actual Time 3:35 AM AKDT 1:50 AM AKDT
Civil Twilight Sun does not rise Sun does not rise
Nautical Twilight Sun does not rise Sun does not rise
Astronomical Twilight Sun does not rise Sun does not rise
Moon 8:05 PM AKDT (5/11) 4:51 AM AKDT (5/11)
Length of Visible Light 24h 00m
Length of Day
22h 14m
Waxing Gibbous, 90% of the Moon is Illuminated
May 11
Waxing Gibbous
May 14
Full
May 21
Last Quarter
May 28
New
Jun 5
First Quarter

Hourly Weather History & Observations

Time (AKDT) Temp. Windchill Dew Point Humidity Pressure Visibility Wind Dir Wind Speed Gust Speed Precip Events Conditions
12:46 AM 33.8 °F 26.4 °F 30.2 °F 87% 30.23 in 10.0 mi SE 9.2 mph - N/A   Overcast
12:53 AM 34.0 °F 28.0 °F 32.0 °F 92% 30.24 in 10.0 mi SE 6.9 mph - N/A   Overcast
1:53 AM 34.0 °F - 33.1 °F 96% 30.24 in 10.0 mi Calm Calm - N/A   Overcast
2:13 AM 33.8 °F - 32.0 °F 93% 30.23 in 10.0 mi Calm Calm - N/A   Overcast
2:44 AM 33.8 °F 28.6 °F 30.2 °F 87% 30.23 in 10.0 mi SE 5.8 mph - N/A   Overcast
2:53 AM 34.0 °F 31.0 °F 30.9 °F 89% 30.23 in 10.0 mi SE 3.5 mph - N/A   Overcast
3:44 AM 33.8 °F 30.8 °F 32.0 °F 93% 30.22 in 10.0 mi East 3.5 mph - N/A   Overcast
3:53 AM 35.1 °F 32.2 °F 32.0 °F 89% 30.22 in 10.0 mi SE 3.5 mph - N/A   Overcast
4:53 AM 35.1 °F 28.6 °F 30.9 °F 85% 30.20 in 10.0 mi ESE 8.1 mph - N/A   Overcast
5:53 AM 35.1 °F 27.4 °F 30.9 °F 85% 30.19 in 10.0 mi ESE 10.4 mph - N/A   Overcast
6:53 AM 35.1 °F 27.9 °F 30.9 °F 85% 30.17 in 10.0 mi ESE 9.2 mph - N/A   Overcast
7:53 AM 35.1 °F 27.9 °F 30.9 °F 85% 30.16 in 10.0 mi SE 9.2 mph - N/A   Overcast
8:53 AM 35.1 °F 29.3 °F 32.0 °F 89% 30.17 in 5.0 mi South 6.9 mph - 0.02 in   Overcast
9:28 AM 35.6 °F 27.1 °F 32.0 °F 87% 30.18 in 5.0 mi SW 12.7 mph - 0.02 in   Overcast
9:44 AM 35.6 °F 28.0 °F 32.0 °F 87% 30.18 in 9.0 mi SW 10.4 mph - 0.02 in   Overcast
9:53 AM 35.1 °F 26.9 °F 33.1 °F 92% 30.18 in 7.0 mi SW 11.5 mph - 0.03 in   Overcast
10:53 AM 37.0 °F 28.5 °F 33.1 °F 86% 30.18 in 10.0 mi SSW 13.8 mph - 0.00 in   Overcast
11:53 AM 37.9 °F 29.6 °F 33.1 °F 83% 30.18 in 10.0 mi SSW 13.8 mph - N/A   Mostly Cloudy
12:20 PM 39.2 °F 30.2 °F 33.8 °F 81% 30.18 in 10.0 mi SSW 17.3 mph - N/A   Overcast
12:53 PM 39.0 °F 29.3 °F 33.1 °F 79% 30.19 in 10.0 mi SSW 19.6 mph - N/A   Overcast
1:53 PM 37.9 °F 28.9 °F 32.0 °F 79% 30.20 in 10.0 mi SSW 16.1 mph - N/A   Overcast
2:53 PM 37.9 °F 28.9 °F 32.0 °F 79% 30.20 in 10.0 mi SSW 16.1 mph - N/A   Mostly Cloudy
3:08 PM 37.4 °F 28.2 °F 33.8 °F 87% 30.20 in 10.0 mi SSW 16.1 mph 24.2 mph N/A   Scattered Clouds
3:53 PM 37.9 °F 28.2 °F 32.0 °F 79% 30.20 in 10.0 mi SW 18.4 mph - N/A   Clear
4:43 PM 37.4 °F 28.5 °F 32.0 °F 81% 30.20 in 10.0 mi SSW 15.0 mph - N/A   Mostly Cloudy
4:53 PM 37.0 °F 28.1 °F 32.0 °F 82% 30.21 in 10.0 mi SSW 15.0 mph - N/A   Overcast
5:53 PM 37.0 °F 30.4 °F 33.1 °F 86% 30.20 in 10.0 mi South 9.2 mph - N/A   Scattered Clouds
6:53 PM 37.0 °F 30.4 °F 32.0 °F 82% 30.20 in 10.0 mi South 9.2 mph - N/A   Clear
7:53 PM 36.0 °F 30.3 °F 32.0 °F 86% 30.20 in 10.0 mi South 6.9 mph - N/A   Clear
8:53 PM 37.0 °F 30.4 °F 32.0 °F 82% 30.19 in 10.0 mi SSW 9.2 mph - N/A   Clear
9:53 PM 36.0 °F 28.5 °F 30.9 °F 82% 30.19 in 10.0 mi SSW 10.4 mph - N/A   Clear
10:53 PM 34.0 °F 28.0 °F 30.0 °F 85% 30.19 in 10.0 mi South 6.9 mph - N/A   Scattered Clouds
11:53 PM 35.1 °F 27.4 °F 30.9 °F 85% 30.19 in 10.0 mi SSW 10.4 mph - N/A   Overcast